Simultaneous Nadir Overpasses (SNOs) Predictions

Prediction of SNOs between GOES-16 and LANDSAT-8 Satellite Orbit:

Table of predicted SNOs for the next 14.0 days since TLE Epoch: 11/9/2019
Index Date Time (GOES-16) GOES-16 Lat,Lon LANDSAT-8 Lat,Lon Distance(km) Time Diff (sec)
1 11/09/2019 03:30:56 -0.01, -75.19 -0.85, -79.10 444.47 80
2 11/10/2019 14:57:20 0.01, -75.20 -0.87, -70.95 483.50 80
3 11/11/2019 03:18:45 -0.01, -75.20 -0.18, -76.15 107.40 80
4 11/13/2019 03:03:53 -0.01, -75.21 0.43, -73.19 230.03 80
5 11/13/2019 15:25:08 0.01, -75.22 0.70, -78.34 355.26 80
6 11/15/2019 15:12:57 0.00, -75.23 0.02, -75.39 17.81 80
7 11/17/2019 15:03:25 -0.00, -75.24 -0.59, -72.43 319.86 80
8 11/18/2019 03:24:48 0.00, -75.24 -0.52, -77.62 270.72 80
9 11/20/2019 03:09:58 0.01, -75.26 0.16, -74.67 67.54 80
10 11/22/2019 02:57:46 0.01, -75.28 0.78, -71.71 406.47 80
11 11/22/2019 15:19:00 -0.01, -75.29 0.35, -76.86 178.46 80




NCC Satellite Simultaneous Nadir Overpasses (SNOs) Prediction Service
